Simultaneous Nadir Overpasses (SNOs) Predictions

Prediction of SNOs between NOAA-19 and METOP-C Satellite Orbit:

Table of predicted SNOs for the next 14.0 days since TLE Epoch: 10/2/2021
Index Date (NOAA-19) Time (NOAA-19) Lat,Lon (NOAA-19) SZA (NOAA-19 ) Date (METOP-C) Time (METOP-C) Lat,Lon (METOP-C) SZA (METOP-C ) Distance(km) Time Diff (sec)
1 10/06/2021 08:32:30 80.65, 81.99 87.37 10/06/2021 08:33:35 80.64, 82.10 87.40 2.32 65
2 10/06/2021 09:23:24 -80.64,-110.52 92.61 10/06/2021 09:24:17 -80.63,-110.63 92.60 1.99 53
3 10/06/2021 10:14:30 80.65, 56.57 87.40 10/06/2021 10:14:57 80.63, 56.64 87.41 2.04 27
4 10/06/2021 11:05:24 -80.64,-135.94 92.58 10/06/2021 11:05:39 -80.63,-136.09 92.59 2.97 15
5 10/06/2021 11:56:29 80.63, 31.51 87.46 10/06/2021 11:56:18 80.64, 31.51 87.46 1.63 11
6 10/06/2021 12:47:24 -80.63,-161.36 92.54 10/06/2021 12:47:00 -80.64,-161.22 92.54 2.66 24
7 10/06/2021 13:38:29 80.63, 6.09 87.49 10/06/2021 13:37:40 80.64, 6.05 87.47 1.36 49



Historial Predications of SNOs between NOAA-19 and METOP-C
